This is the latest recevied weather packets stored in our database for station/object DC3YC-13. If no packets are shown the sender has not sent any weather packets the latest 1 day(s).
| Time | Temp. | Humidity | Pressure | Rain* | Wind** | Luminosity | Snow |
|---|---|---|---|---|---|---|---|
| 1777976193 | 26.11° C | 43% | 1004.9 hPa | 0 mm | 2.68 m/s, 355° | - | - |
| 1777975593 | 25° C | 46% | 1004.9 hPa | 0 mm | 3.13 m/s, 350° | - | - |
| 1777974993 | 23.89° C | 43% | 1004.9 hPa | 0 mm | 2.68 m/s, 355° | - | - |
| 1777974393 | 22.78° C | 48% | 1004.9 hPa | 0 mm | 3.13 m/s, 355° | - | - |
| 1777973793 | 23.89° C | 47% | 1004.9 hPa | 0 mm | 1.79 m/s, 355° | - | - |
| 1777973193 | 23.89° C | 47% | 1006 hPa | 0 mm | 3.58 m/s, 355° | - | - |
| 1777972593 | 23.89° C | 45% | 1006 hPa | 0 mm | 2.68 m/s, 355° | - | - |
| 1777971993 | 23.89° C | 50% | 1006 hPa | 0 mm | 2.24 m/s, 350° | - | - |
| 1777971393 | 22.78° C | 51% | 1006 hPa | 0 mm | 0.45 m/s, 355° | - | - |
| 1777970793 | 22.78° C | 54% | 1006 hPa | 0 mm | 2.68 m/s, 355° | - | - |
| 1777970193 | 22.22° C | 57% | 1006 hPa | 0 mm | 1.79 m/s, 355° | - | - |
| 1777969593 | 21.11° C | 59% | 1006 hPa | 0 mm | 2.24 m/s, 355° | - | - |
| 1777968993 | 21.11° C | 60% | 1006 hPa | 0 mm | 2.24 m/s, 355° | - | - |
| 1777968393 | 21.11° C | 61% | 1006 hPa | 0 mm | 2.68 m/s, 355° | - | - |
| 1777967793 | 20° C | 64% | 1006 hPa | 0 mm | 1.79 m/s, 355° | - | - |
| 1777967193 | 18.89° C | 67% | 1007 hPa | 0 mm | 1.79 m/s, 355° | - | - |
| 1777966593 | 17.78° C | 69% | 1007 hPa | 0 mm | 0.89 m/s, 355° | - | - |
| 1777965993 | 17.78° C | 71% | 1007 hPa | 0 mm | 0 m/s | - | - |
| 1777965393 | 17.22° C | 73% | 1003.9 hPa | 0 mm | 2.68 m/s, 355° | - | - |
| 1777964793 | 17.22° C | 75% | 1007 hPa | 0 mm | 0.89 m/s, 355° | - | - |
| 1777964193 | 16.11° C | 77% | 1007 hPa | 0 mm | 0.45 m/s, 355° | - | - |
| 1777963593 | 16.11° C | 78% | 1007 hPa | 0 mm | 0.45 m/s, 355° | - | - |
| 1777962993 | 15° C | 79% | 1007 hPa | 0 mm | 1.79 m/s, 355° | - | - |
| 1777962393 | 15° C | 81% | 1007 hPa | 0 mm | 0 m/s | - | - |
| 1777961793 | 13.89° C | 82% | 1007 hPa | 0 mm | 0 m/s | - | - |
* Rain latest hour (hover to see other rain measurements)
** Current wind speed in m/s (hover to see current wind gust speed)